Location: Mentone
(34.5413°N, 85.5351°W)
Time: 10:58:53
(UTC-05:00)

Tiros 1 despin weight - All Passes

Search period start: 25 April 2015 00:00
Search period end: 05 May 2015 00:00
Orbit: 598 x 648 km, 48.2° (Epoch: 25 April)

Date Brightness Start Highest point End Pass type
(mag) Time Alt. Az. Time Alt. Az. Time Alt. Az.
25 Apr - 07:32:26 10° SE 07:33:10 10° SE 07:34:11 10° ESE daylight
25 Apr - 09:09:40 10° SW 09:14:20 74° SE 09:19:03 10° NE daylight
25 Apr - 10:52:23 10° W 10:56:24 27° NNW 11:00:25 10° NE daylight
25 Apr - 12:36:34 10° NW 12:39:20 15° N 12:42:06 10° NNE daylight
25 Apr - 14:18:46 10° NNW 14:22:23 21° NNE 14:26:00 10° ENE daylight
25 Apr - 16:00:01 10° NW 16:04:42 74° NE 16:09:19 10° ESE daylight
25 Apr - 17:42:55 10° W 17:46:01 17° SW 17:48:56 10° S daylight
26 Apr - 07:47:21 10° S 07:51:03 24° SE 07:54:51 10° ENE daylight
26 Apr - 09:27:53 10° WSW 09:32:31 57° NNW 09:37:10 10° NE daylight
26 Apr - 11:11:34 10° WNW 11:14:59 19° NNW 11:18:23 10° NNE daylight
26 Apr - 12:55:13 10° NNW 12:58:05 16° N 13:00:57 10° NE daylight
26 Apr - 14:36:43 10° NW 14:40:55 31° NNE 14:45:06 10° E daylight
26 Apr - 16:18:13 10° WNW 16:22:48 54° SW 16:27:17 10° SE daylight
27 Apr - 08:04:29 10° SSW 08:09:00 51° SE 08:13:36 10° ENE daylight
27 Apr - 09:46:36 10° W 09:50:52 33° NNW 09:55:08 10° NE daylight
27 Apr - 11:30:45 10° NW 11:33:40 16° N 11:36:34 10° NNE daylight
27 Apr - 13:13:27 10° NNW 13:16:46 19° NNE 13:20:07 10° ENE daylight
27 Apr - 14:54:40 10° NW 14:59:17 54° NNE 15:03:51 10° ESE daylight
27 Apr - 16:36:53 10° WNW 16:40:46 25° SW 16:44:31 10° S daylight
28 Apr - 06:42:59 10° SSE 06:45:48 16° SE 06:48:47 10° E daylight
28 Apr - 08:22:25 10° WSW 08:27:05 78° NW 08:31:49 10° NE daylight
28 Apr - 10:05:40 10° WNW 10:09:22 22° NNW 10:13:04 10° NNE daylight
28 Apr - 11:49:38 10° NW 11:52:24 15° N 11:55:10 10° NE daylight
28 Apr - 13:31:25 10° NW 13:35:22 26° NNE 13:39:18 10° E daylight
28 Apr - 15:12:45 10° NW 15:17:28 79° SW 15:22:05 10° SE daylight
28 Apr - 16:57:08 10° WSW 16:58:38 11° SW 16:59:53 10° SW daylight
29 Apr - 06:59:29 10° SSW 07:03:41 35° SE 07:07:59 10° ENE daylight
29 Apr - 08:40:53 10° WSW 08:45:20 42° NNW 08:49:50 10° NE daylight
29 Apr - 10:24:52 10° NW 10:28:00 17° N 10:31:06 10° NNE daylight
29 Apr - 12:08:02 10° NNW 12:11:07 17° N 12:14:12 10° NE daylight
29 Apr - 13:49:21 10° NW 13:53:48 40° NNE 13:58:13 10° E daylight
29 Apr - 15:31:09 10° WNW 15:35:28 37° SW 15:39:43 10° SSE daylight
30 Apr - 05:39:41 10° SE 05:40:32 11° SE 05:41:39 10° ESE daylight
30 Apr - 07:17:03 10° SW 07:21:41 75° SE 07:26:23 10° NE daylight
30 Apr - 08:59:47 10° W 09:03:46 26° NNW 09:07:45 10° NE daylight
30 Apr - 10:43:55 10° NW 10:46:42 15° N 10:49:28 10° NE daylight
30 Apr - 12:26:06 10° NNW 12:29:44 22° NNE 12:33:25 10° ENE daylight
30 Apr - 14:07:19 10° NW 14:12:03 75° NE 14:16:42 10° ESE daylight
30 Apr - 15:50:16 10° W 15:53:22 17° SW 15:56:18 10° S daylight
01 May - 05:54:42 10° S 05:58:22 24° SE 06:02:11 10° ENE daylight
01 May - 07:35:16 10° WSW 07:39:50 56° NNW 07:44:28 10° NE daylight
01 May - 09:18:56 10° WNW 09:22:20 19° NNW 09:25:42 10° NNE daylight
01 May - 11:02:33 10° NNW 11:05:24 16° N 11:08:19 10° NE daylight
01 May - 12:44:01 10° NW 12:48:14 32° NNE 12:52:28 10° E daylight
01 May - 14:25:31 10° WNW 14:30:08 54° SW 14:34:39 10° SE daylight
02 May - 06:11:50 10° SSW 06:16:18 52° SE 06:20:52 10° ENE daylight
02 May - 07:53:57 10° W 07:58:09 32° NNW 08:02:24 10° NE daylight
02 May - 09:38:06 10° NW 09:40:59 16° N 09:43:52 10° NNE daylight
02 May - 11:20:43 10° NNW 11:24:04 19° NNE 11:27:28 10° ENE daylight
02 May - 13:01:55 10° NW 13:06:34 55° NNE 13:11:11 10° ESE daylight
02 May - 14:44:10 10° WNW 14:48:03 25° SW 14:51:49 10° S daylight
03 May - 04:50:16 10° SSE 04:53:04 16° SE 04:56:03 10° E visible
03 May - 06:29:44 10° WSW 06:34:21 77° NW 06:39:04 10° NE daylight
03 May - 08:12:59 10° WNW 08:16:39 22° NNW 08:20:18 10° NNE daylight
03 May - 09:56:56 10° NW 09:59:41 15° N 10:02:27 10° NE daylight
03 May - 11:38:40 10° NW 11:42:38 26° NNE 11:46:36 10° E daylight
03 May - 13:20:00 10° NW 13:24:43 77° SW 13:29:23 10° SE daylight
03 May - 15:04:27 10° WSW 15:05:54 11° SW 15:07:05 10° SW daylight
04 May - 05:06:46 10° SSW 05:10:56 35° SE 05:15:12 10° ENE visible
04 May - 06:48:11 10° W 06:52:35 41° NNW 06:57:02 10° NE daylight
04 May - 08:32:10 10° NW 08:35:15 17° N 08:38:19 10° NNE daylight
04 May - 10:15:17 10° NNW 10:18:22 17° N 10:21:29 10° NE daylight
04 May - 11:56:33 10° NW 12:01:02 41° NNE 12:05:30 10° E daylight
04 May - 13:38:22 10° WNW 13:42:42 36° SW 13:46:58 10° SSE daylight
